Theta_e
308 306 305 304 304 303 303 302 301 301 300 300 301 302 303 303 304 306 310 311 312 312 313 313 315 316 316 317 324 324 324 325 327 331 329 328 330 330 329 330 332 336 336 335 335 335 334 333 334 333 340 339 341 341
310 307 306 305 304 304 303 303 303 302 301 300 300 301 302 303 304 305 308 311 311 311 311 311 311 311 312 314 318 321 323 327 328 334 332 333 337 332 330 331 332 338 335 336 335 334 343 339 341 342 340 340 340 342
315 309 308 306 304 304 304 303 303 303 303 302 301 300 301 302 303 304 307 309 309 309 311 312 314 314 316 314 314 318 321 325 327 326 326 331 337 337 340 331 335 335 335 338 338 340 341 339 339 339 339 339 341 341
319 314 308 308 305 304 304 304 304 303 303 303 302 301 301 302 302 303 306 309 310 309 310 315 317 319 320 322 320 318 319 325 321 322 322 327 333 333 340 337 339 341 342 338 344 343 342 342 342 342 341 342 342 343
321 319 312 307 306 304 303 304 304 304 304 303 303 302 301 302 302 303 306 308 309 310 313 315 316 320 319 321 318 323 322 321 320 320 322 324 328 337 337 339 341 337 343 340 345 345 344 342 341 341 343 345 347 348
321 320 319 310 306 305 304 304 304 304 304 304 303 302 302 302 303 305 312 314 313 309 308 314 320 321 324 326 321 322 321 319 318 319 322 328 330 334 339 339 339 338 339 341 341 341 339 339 339 340 341 342 344 346
322 321 319 314 309 305 304 304 304 305 305 304 303 303 302 303 306 309 314 314 311 310 308 312 321 326 324 324 321 321 322 321 320 324 327 328 332 331 338 343 339 338 338 338 338 338 337 337 338 338 339 338 339 340
322 321 320 317 309 305 304 304 305 305 305 304 303 302 303 310 310 313 315 313 312 308 310 314 323 325 322 323 324 323 322 322 324 327 329 330 331 333 342 339 339 337 337 337 337 338 339 339 338 338 338 339 339 340
321 321 320 317 309 306 304 304 305 305 305 304 302 308 316 314 314 315 314 314 313 311 313 318 324 325 321 324 324 322 319 326 327 329 329 330 333 342 341 341 340 339 339 338 336 335 336 337 338 337 337 338 338 339
321 320 320 317 310 306 304 304 305 305 304 304 309 314 318 316 316 315 314 311 309 309 312 316 320 325 324 324 324 322 321 326 329 329 328 330 335 337 338 339 339 338 338 337 335 335 334 335 336 336 337 337 340 339
320 320 319 316 308 306 304 304 305 304 307 307 307 311 313 311 313 315 318 314 313 315 316 319 324 327 325 329 329 325 329 328 330 325 328 328 332 338 336 337 337 336 335 335 335 336 335 335 334 336 337 338 339 338
320 319 318 315 307 305 304 305 304 304 306 303 303 306 310 314 319 320 320 316 320 324 323 325 326 326 326 328 327 330 332 329 332 327 330 330 341 336 335 334 335 334 333 333 334 335 334 333 332 334 336 336 339 338
319 318 317 312 307 304 304 305 304 303 302 309 309 311 315 318 319 320 320 318 317 317 322 321 324 326 327 327 327 330 334 334 329 330 333 338 336 335 335 335 334 334 333 333 334 334 335 335 335 336 337 338 337 336
317 316 314 308 306 303 305 304 303 303 304 311 313 318 318 319 319 321 320 319 317 317 319 321 324 327 328 329 327 332 331 332 331 331 337 340 337 336 335 335 335 334 334 333 333 334 335 335 336 335 336 336 335 335
314 313 308 307 304 305 305 303 303 303 309 311 313 320 318 317 318 319 319 317 318 319 321 322 325 327 332 330 329 330 331 333 332 336 337 337 337 336 335 334 334 334 333 333 333 333 333 334 334 333 333 333 333 333
311 308 308 305 305 304 303 303 305 309 310 310 311 315 315 316 317 320 320 318 319 321 322 324 326 332 329 331 331 328 330 330 332 333 333 335 336 336 335 334 333 333 333 332 333 333 333 333 332 332 332 332 332 332
306 305 306 305 304 303 303 304 309 310 311 312 313 312 313 314 316 317 319 318 320 321 326 327 330 328 328 328 331 333 332 333 331 332 335 337 337 335 334 334 332 332 332 332 333 332 332 332 332 333 333 333 331 331
305 305 304 304 304 303 308 306 310 311 312 311 312 312 314 315 316 317 317 319 320 321 323 327 327 328 330 332 333 332 331 332 332 333 334 335 335 334 333 332 333 330 329 329 329 326 326 328 330 329 329 330 329 330
304 305 305 304 302 305 308 309 309 311 312 311 312 313 313 313 314 317 318 318 318 320 322 327 328 328 328 328 330 331 332 331 333 333 334 334 333 332 331 329 329 331 329 329 326 325 325 326 326 324 324 323 322 326
302 303 303 302 303 305 308 308 310 311 312 315 314 314 314 315 316 317 318 318 319 323 326 326 326 323 325 325 327 331 331 331 331 331 331 331 331 327 326 331 329 329 328 327 325 324 327 327 326 325 325 324 323 323
303 303 303 304 306 305 309 309 310 311 312 313 315 316 317 317 316 316 318 318 319 321 322 323 326 325 325 327 330 332 332 331 330 329 329 328 330 330 332 327 327 327 327 325 326 327 326 326 325 324 323 323 323 324
306 304 306 305 307 308 308 308 309 310 311 312 313 314 315 317 317 317 317 319 320 320 320 321 323 323 324 328 332 332 331 328 329 326 325 323 329 328 329 330 326 327 328 327 326 326 326 325 322 322 323 322 321 320
304 304 306 307 307 308 307 309 310 311 313 314 315 317 318 318 318 319 319 319 319 320 320 320 322 324 321 323 328 330 328 330 327 325 328 328 328 328 327 323 324 324 324 328 327 326 325 321 322 321 319 318 318 318
304 306 307 308 308 308 309 311 312 313 313 313 316 317 318 318 319 320 321 320 320 320 320 322 322 322 323 319 326 327 328 329 324 324 329 328 327 327 328 328 327 326 325 326 324 323 323 321 320 319 318 316 316 315
305 304 306 304 308 309 311 312 312 314 315 316 316 318 319 319 322 323 322 324 323 323 324 325 325 326 324 323 325 329 329 326 325 326 327 327 327 326 327 326 326 325 324 324 323 323 323 322 320 320 318 318 315 311
306 306 306 309 309 310 312 313 314 315 315 316 317 317 318 320 321 323 325 325 326 326 325 325 325 326 327 326 324 328 328 326 326 326 326 325 326 327 327 327 327 326 324 323 323 323 322 321 320 318 314 311 308 310
305 308 308 308 310 311 311 312 314 315 316 317 318 318 320 321 323 327 326 325 324 325 326 325 325 326 325 327 327 327 327 327 326 326 326 325 327 327 327 325 325 324 323 322 322 322 322 320 319 317 314 312 312 314
306 308 309 309 309 309 312 314 315 316 317 316 317 321 321 323 324 322 321 320 321 323 324 325 325 325 325 327 327 327 327 325 326 325 325 325 327 327 327 325 322 322 322 321 321 321 320 319 319 319 318 315 314 314
307 308 308 309 310 310 311 313 315 315 315 317 319 321 321 321 321 322 322 320 321 322 323 323 326 326 327 326 327 328 328 327 326 326 326 325 325 326 325 322 322 322 320 319 320 321 320 320 320 320 320 320 318 317
307 308 309 309 311 312 311 311 313 314 314 316 317 318 318 319 319 320 319 320 320 322 323 323 324 326 328 327 327 327 327 328 328 327 325 325 326 326 324 323 322 322 321 320 320 319 319 320 320 320 320 319 318 318
308 308 308 310 311 310 310 311 312 313 314 315 316 317 318 318 318 319 319 320 320 321 322 323 324 324 325 327 328 328 327 326 325 327 325 326 326 325 324 323 322 322 321 321 320 320 320 321 321 321 321 321 322 320
308 309 310 311 311 310 312 311 311 313 314 315 315 316 316 316 318 319 320 320 320 322 323 322 323 325 327 328 328 328 327 326 326 325 325 324 324 325 324 322 322 322 321 320 320 321 321 321 321 321 321 320 319 319
310 310 309 311 312 313 312 313 314 315 315 315 315 315 315 316 318 319 321 320 321 322 322 323 325 326 329 329 329 328 327 325 324 323 325 325 325 324 322 322 322 321 320 320 320 320 321 321 320 320 321 321 321 321
Wind_Speed
17 18 18 19 20 19 18 18 18 18 18 18 17 17 17 16 13 11 8 10 13 18 33 32 21 20 20 20 12 14 15 14 16 15 16 18 19 18 23 26 27 18 17 15 17 18 20 4 6 11 6 8 7 10
16 16 18 18 18 19 19 18 18 19 18 18 17 17 16 16 15 12 11 7 11 19 28 37 40 38 37 29 26 22 17 14 7 6 4 5 14 16 21 19 22 20 18 15 15 17 10 5 2 6 4 1 3 4
19 18 18 19 19 19 20 20 19 20 20 20 18 18 17 17 16 16 15 14 13 19 33 26 23 20 18 27 28 29 23 16 7 7 8 6 10 10 12 19 14 8 27 20 11 6 7 6 4 1 2 2 2 4
22 22 21 20 20 20 20 21 21 20 21 22 20 19 19 19 20 20 18 13 12 10 9 13 10 9 9 15 21 24 28 6 10 11 5 8 13 15 11 7 3 2 14 16 12 13 8 11 10 7 6 5 5 5
21 22 21 20 21 20 20 21 22 23 23 23 23 21 21 23 24 23 21 21 19 14 10 23 32 18 14 16 26 20 19 18 5 2 5 12 29 23 13 11 12 11 23 11 8 12 15 13 10 10 11 11 12 14
23 24 23 22 21 21 20 22 23 24 25 24 25 23 24 24 21 15 6 3 6 20 6 5 13 16 9 11 17 18 20 16 7 5 13 22 41 30 12 6 15 19 15 10 13 16 17 15 13 14 17 19 19 20
25 25 25 24 22 21 22 23 24 25 25 25 26 26 25 19 16 8 5 2 5 8 5 8 7 5 6 15 15 15 12 11 17 14 15 34 31 11 9 3 17 25 13 17 14 15 15 14 13 13 14 17 16 17
25 24 25 24 22 20 21 23 25 26 25 25 27 25 20 14 11 11 9 17 17 8 6 4 6 5 11 13 10 8 4 8 11 10 17 11 22 12 3 16 24 12 22 18 14 12 13 11 12 13 12 13 12 12
25 24 23 23 20 20 21 21 25 26 25 24 20 15 6 2 1 6 11 11 10 9 5 6 4 2 8 17 6 5 2 4 10 8 7 4 5 4 9 13 7 17 15 12 11 12 11 12 9 7 7 9 12 10
25 25 24 22 19 18 21 21 24 24 23 15 8 4 2 3 7 10 4 5 10 7 8 7 17 5 10 10 5 6 6 4 6 6 4 2 3 7 9 9 11 12 11 10 5 11 7 9 6 5 4 3 13 12
24 26 22 19 17 17 18 20 21 21 15 11 6 4 7 11 6 5 5 6 7 5 8 9 11 4 10 3 2 6 3 4 4 3 2 2 1 6 8 12 13 13 12 10 6 4 3 3 3 6 8 9 11 12
24 21 20 18 16 16 16 18 18 13 11 13 13 13 9 4 7 6 1 4 5 3 7 7 7 9 8 3 6 6 3 4 2 7 1 2 4 8 10 12 12 13 12 11 8 5 2 2 4 6 9 12 12 13
21 22 19 17 15 14 14 16 15 15 17 6 4 4 4 4 2 4 3 3 3 7 5 16 12 6 4 4 2 1 11 5 7 6 2 5 13 10 9 8 9 10 10 9 9 7 5 5 6 9 11 12 14 14
23 21 19 15 13 14 14 13 11 13 5 5 4 4 5 4 4 4 6 6 8 10 14 17 14 4 2 3 2 5 4 3 3 3 7 10 15 11 9 7 6 6 6 7 7 8 9 10 12 13 14 14 14 13
21 17 14 11 12 13 11 9 10 6 4 5 5 4 7 7 6 1 3 7 9 12 13 10 9 7 3 2 1 6 2 6 5 5 5 14 12 11 8 6 5 4 2 2 3 6 8 9 10 11 11 11 10 10
15 13 11 10 11 9 8 9 7 3 5 6 7 7 13 12 2 3 5 10 8 11 13 6 5 4 6 5 5 4 1 4 8 11 16 12 12 10 9 9 9 7 5 2 4 7 7 8 9 10 9 7 5 5
13 10 9 10 9 7 8 4 4 6 7 6 8 13 14 12 11 10 8 8 8 12 4 5 4 2 6 4 4 4 2 6 15 12 12 11 10 11 11 10 9 8 8 6 5 6 8 8 7 6 5 2 1 3
12 7 8 9 6 4 4 5 5 6 8 12 12 14 11 11 10 8 4 7 8 8 7 3 6 2 4 7 7 6 12 14 12 10 9 9 11 11 10 9 8 9 9 10 9 8 8 8 3 4 1 1 4 5
13 9 11 8 4 2 3 5 7 6 11 12 11 12 12 12 10 10 8 8 7 7 7 4 3 2 2 5 9 13 9 5 8 5 7 8 8 7 7 6 5 5 5 5 7 8 8 5 4 4 4 6 7 5
12 9 9 7 5 2 4 5 6 6 8 5 7 11 11 11 9 8 10 8 7 3 4 3 2 6 11 5 7 5 8 3 1 8 8 8 6 5 3 2 3 3 4 4 4 2 1 1 2 6 7 11 6 5
5 5 6 6 5 7 5 5 7 8 9 9 8 7 9 9 11 12 13 10 9 9 7 3 5 1 2 2 3 3 2 1 6 8 7 5 4 4 5 2 4 3 3 6 7 2 1 5 9 8 10 9 5 6
6 7 5 5 4 5 6 8 8 8 7 10 10 10 10 10 9 12 12 13 14 10 11 7 5 2 0 1 1 1 4 7 7 6 5 4 1 2 1 4 3 1 3 4 4 6 7 7 10 7 6 4 3 2
7 8 4 5 5 5 7 7 7 8 5 4 6 5 7 5 6 4 6 12 12 9 9 10 8 6 4 4 2 1 5 7 7 6 2 1 3 4 4 4 5 3 7 2 2 3 4 5 6 4 4 3 3 5
9 4 4 5 10 5 7 8 9 7 5 8 5 6 4 4 6 4 7 8 7 6 7 8 6 7 6 5 3 5 8 8 8 8 3 2 6 5 2 4 3 2 3 2 2 2 3 4 8 8 10 13 17 22
3 5 6 7 7 6 5 7 11 7 6 7 7 6 3 5 3 4 4 1 4 5 5 4 6 11 12 11 11 8 9 11 8 9 4 1 4 4 6 5 4 3 2 3 2 3 5 6 9 11 13 12 13 15
4 7 7 8 7 5 6 4 6 8 8 5 5 6 3 3 4 2 2 2 4 4 4 5 6 5 4 2 10 15 11 9 6 4 3 4 5 2 7 4 5 3 3 3 4 6 8 10 13 13 13 14 17 14
4 7 9 9 7 6 6 9 6 4 4 5 5 4 2 4 2 3 5 5 6 3 1 3 6 5 6 3 4 3 4 8 7 2 3 2 3 1 3 3 4 4 5 5 6 8 10 13 13 13 13 12 9 9
10 5 10 12 11 10 9 8 7 6 6 5 4 3 3 3 2 3 6 5 5 2 3 4 4 6 5 4 6 6 8 8 8 7 4 5 3 4 4 5 7 12 9 8 9 11 12 12 12 12 10 9 8 7
10 8 10 11 11 9 9 8 8 6 3 3 4 1 1 3 4 4 3 9 4 4 3 3 2 5 5 7 7 8 7 10 11 10 10 10 11 8 6 8 10 8 9 13 15 13 12 11 10 9 9 8 7 5
12 12 10 10 12 8 13 11 9 7 5 5 3 4 5 4 1 4 2 3 4 4 4 5 4 5 5 6 8 9 8 8 8 13 13 9 11 10 10 8 8 9 9 10 11 13 13 10 10 8 7 5 4 2
8 11 12 13 10 14 15 11 11 8 7 10 10 9 6 3 5 7 10 6 6 6 5 5 5 4 5 6 8 10 11 9 10 5 7 9 14 12 10 9 10 10 10 9 10 10 10 8 6 5 3 2 1 1
10 10 10 8 11 12 8 10 13 12 11 12 13 11 11 11 9 7 9 9 7 6 5 4 4 3 5 5 5 3 9 12 11 12 7 10 11 11 10 9 11 10 10 9 9 9 8 6 5 4 3 3 2 1
8 10 11 11 7 5 9 8 7 9 11 12 13 12 14 13 12 5 5 8 8 6 4 4 4 6 6 6 9 10 10 12 16 14 12 12 12 12 9 11 11 10 10 10 9 8 7 5 5 4 3 2 1 0
Wind_Direction
335 336 337 340 342 347 351 350 346 342 339 336 333 330 330 328 326 323 278 274 259 273 282 281 282 279 279 258 250 278 307 262 248 257 248 247 246 243 240 232 219 200 227 221 229 231 236 220 200 245 67 67 9 345
323 328 330 331 332 336 339 340 341 340 337 332 330 327 326 324 323 313 301 287 272 258 264 281 280 269 253 252 266 267 264 280 306 290 329 307 311 257 233 231 223 202 214 218 225 226 99 124 40 67 42 75 22 330
318 319 322 323 324 328 328 329 333 334 334 332 327 324 323 320 316 305 285 284 281 282 296 277 273 281 252 236 232 251 248 244 255 306 346 302 287 282 278 230 205 256 223 212 213 121 99 82 104 83 251 261 254 244
315 316 315 318 319 322 324 324 325 328 329 330 325 319 317 315 311 301 279 273 259 274 281 306 318 288 247 240 229 231 240 259 297 290 333 285 277 331 289 288 140 14 265 208 121 110 131 83 65 66 82 117 130 122
309 313 309 310 314 315 317 319 321 323 326 326 322 313 310 311 308 298 283 265 243 229 311 299 301 293 253 244 237 226 227 218 265 320 248 270 277 270 260 245 145 128 263 181 107 116 86 101 94 89 99 102 103 108
301 305 306 304 305 307 312 315 317 320 322 322 320 311 308 309 302 299 301 235 244 212 267 291 312 292 266 261 203 207 194 198 207 233 263 260 258 261 283 152 95 55 18 71 110 97 107 109 113 114 108 107 105 104
295 302 301 302 302 305 309 312 315 317 319 322 319 311 308 301 279 227 284 196 198 187 246 282 266 243 280 162 152 152 175 202 219 230 231 253 271 262 287 3 97 122 120 83 96 116 122 126 121 122 119 116 112 112
283 293 299 301 296 301 306 310 313 316 320 322 318 313 310 295 265 270 272 259 261 215 230 267 269 152 167 164 167 173 174 225 236 234 268 256 269 237 73 43 4 64 89 82 80 90 103 99 120 126 130 127 123 123
274 277 288 295 293 299 302 309 312 317 323 327 320 319 337 48 231 229 257 270 259 219 272 257 282 38 301 262 153 117 171 246 223 213 227 263 246 39 28 62 358 26 42 44 71 81 108 125 127 142 148 161 140 131
269 275 285 290 289 295 299 310 313 320 329 345 351 312 273 246 280 292 287 176 197 232 234 257 276 256 259 258 186 114 221 243 189 199 154 232 87 72 57 53 45 39 36 36 44 94 97 107 119 113 103 135 132 140
268 273 278 285 282 289 299 309 315 323 351 344 310 288 283 294 276 224 226 188 203 235 213 239 255 271 276 322 323 144 247 264 156 130 186 154 183 73 52 49 47 45 45 47 53 69 74 104 91 124 124 126 133 141
264 270 275 277 272 283 298 306 311 322 318 303 290 289 292 245 231 241 134 332 247 300 314 320 312 292 278 284 226 219 274 216 24 175 216 205 106 88 68 54 48 45 44 43 44 54 84 156 180 164 152 141 140 142
263 269 271 261 262 277 293 299 301 317 328 298 301 276 238 256 279 238 233 206 264 289 302 327 329 295 315 284 329 281 223 98 223 206 100 114 131 113 87 71 57 51 49 49 49 57 77 107 141 155 151 146 142 139
260 262 258 250 263 279 290 289 300 323 330 258 228 255 250 257 236 188 251 278 266 271 296 312 309 275 232 285 211 272 295 259 144 185 107 135 123 105 90 72 61 45 47 59 70 83 97 110 119 127 132 136 138 136
251 249 243 248 263 279 275 287 301 304 278 259 231 244 232 262 295 141 246 290 269 269 280 295 286 256 226 258 69 285 345 351 342 89 164 108 109 103 87 67 53 40 42 137 128 120 120 123 123 123 125 128 128 126
238 239 247 254 262 256 281 293 282 223 248 241 241 247 255 264 316 176 241 273 288 288 293 245 246 233 211 175 242 161 239 334 75 83 109 113 95 90 87 78 65 56 58 88 165 160 144 141 130 126 122 121 125 142
221 225 243 244 247 271 283 283 208 226 243 236 236 235 261 278 283 308 300 259 281 289 290 281 252 345 302 264 90 276 168 105 96 92 76 87 97 105 99 88 77 73 73 82 76 69 107 105 116 125 127 110 106 175
208 218 241 253 269 295 247 202 237 240 241 245 255 259 255 261 281 280 240 256 273 285 311 299 299 324 335 346 7 32 58 66 75 91 103 104 112 116 110 102 92 85 80 91 90 86 76 72 105 108 101 310 260 219
175 191 242 247 244 225 229 226 225 261 244 257 257 265 268 270 272 272 240 258 269 273 283 284 298 337 16 352 346 355 357 84 96 101 126 129 130 130 123 112 101 96 103 111 141 111 105 93 73 25 8 352 318 242
208 224 231 230 210 160 240 230 216 256 272 309 256 260 261 259 263 243 240 237 241 226 227 223 169 239 176 248 280 327 331 3 243 109 124 138 140 144 142 141 149 141 151 156 161 137 30 316 62 339 326 323 320 296
219 228 194 195 208 223 262 251 236 260 285 277 275 259 263 254 234 239 235 230 228 234 247 196 157 18 61 242 258 261 265 102 107 110 124 118 139 197 164 231 176 219 209 234 173 225 102 339 323 317 310 302 288 304
213 219 175 182 226 237 255 235 253 309 275 265 279 256 261 252 230 222 223 225 233 236 233 249 221 241 187 344 339 160 127 130 102 115 113 105 152 335 43 147 153 250 301 10 324 329 331 321 321 328 307 315 255 209
179 175 203 216 224 236 259 224 243 240 243 253 221 230 227 219 224 184 232 226 231 236 209 213 218 238 256 289 316 194 171 151 137 133 100 110 109 139 107 120 145 193 235 171 335 330 333 15 358 53 35 81 105 110
167 190 218 217 210 248 230 219 221 258 237 231 250 246 235 201 170 239 247 232 219 185 193 209 234 227 236 246 206 185 172 166 166 171 229 188 137 134 133 134 115 44 4 356 349 17 29 79 85 89 95 102 107 104
194 228 207 237 226 224 241 223 220 233 235 219 231 240 197 176 223 229 240 76 193 160 186 201 219 230 227 214 194 175 172 175 189 202 207 235 184 159 149 122 80 44 45 68 76 98 114 115 114 112 112 122 123 121
210 216 202 206 212 210 210 234 210 219 236 230 233 261 201 225 242 223 118 125 122 131 171 201 215 247 281 209 180 183 187 206 217 216 187 241 231 190 184 156 160 90 89 101 122 130 133 130 127 126 128 133 124 108
237 231 206 229 250 211 248 258 272 240 235 225 245 202 175 232 216 91 125 109 125 87 87 205 224 205 198 226 224 212 157 183 202 216 141 213 221 116 95 98 72 110 129 123 126 135 135 135 135 134 137 140 138 124
234 249 229 211 217 229 260 281 200 217 229 226 249 195 288 13 72 131 150 164 200 354 262 225 227 224 220 213 204 203 204 196 198 210 212 197 170 138 121 116 122 135 130 126 129 131 134 138 138 137 143 147 143 133
226 227 222 228 215 215 227 233 245 223 234 204 266 237 110 104 131 152 181 203 186 250 231 227 228 215 211 218 213 211 209 205 208 200 212 191 175 149 151 130 125 131 131 139 139 139 137 135 133 134 137 144 151 151
233 223 219 219 220 220 229 222 245 253 217 223 230 238 229 209 197 210 186 207 221 219 225 247 198 201 212 201 205 206 204 214 209 201 197 200 186 164 156 149 153 149 142 140 143 156 156 146 148 135 137 142 145 149
217 210 219 234 224 228 241 243 227 240 241 240 237 245 260 273 270 254 218 221 222 242 246 228 223 228 206 186 210 204 194 182 185 172 199 202 157 151 158 160 158 156 151 150 148 148 150 146 148 154 163 175 182 198
214 218 209 224 233 235 238 227 227 233 236 234 238 239 242 245 247 243 217 217 233 229 225 245 254 254 199 195 201 188 171 167 174 172 146 140 148 157 154 151 155 157 157 155 154 162 165 164 167 167 159 155 142 108
252 220 219 240 254 220 205 214 210 228 243 246 244 239 239 236 235 219 202 208 210 226 242 250 233 206 176 167 158 163 147 150 158 162 160 160 159 155 153 155 156 153 148 146 151 156 154 159 160 163 166 165 191 249